[[{"header":{"parameterUnit":"m.s-1","parameterCategory":1,"la1":30.2991,"la2":30.254,"lo1":-89.0895,"lo2":-89.0444,"dy":0.0017,"dx":0.0017,"nx":28,"ny":28,"refTime":"2024-11-28T03:00:00:Z","depth":0,"parameterNumber":2,"parameterNumberName":"U-component_of_WINDS"},"data":[0,0,0,0,0,0,0,0,0,0,0,0,0,0,0,0,0,0,0,0,0,0,0,0,0,0,0,0,0,0,0,0,0,0,0,0,0,0,0,0,0,0,0,0,0,0,0,0,0,0,0,0,0,0,0,0,0,0,-0.8688,-0.8688,0,-0.872,-0.872,-0.872,-0.8703,-0.8702,-0.8701,-0.8701,-0.8733,-0.8734,-0.8736,0,0,0,0,0,0,0,0,0,0,0,0,0,-0.8612,-0.8614,-0.8688,-0.8688,-0.8689,-0.8719,-0.872,-0.872,-0.8703,-0.8702,-0.8701,-0.87,-0.8732,-0.8734,-0.8736,0,0,0,0,0,0,0,0,0,0,0,0,0,-0.8645,-0.8614,-0.8688,-0.8684,-0.8684,-0.8719,-0.872,-0.872,-0.8703,-0.8702,-0.8701,-0.87,-0.8732,-0.8734,-0.8737,-0.8778,0,0,-0.8744,-0.8745,0,0,0,0,0,0,0,0,-0.8643,-0.8648,-0.8684,-0.8684,-0.8684,-0.8706,-0.8705,-0.874,-0.8704,-0.8696,-0.8701,-0.8699,-0.8725,-0.8728,-0.8737,-0.8779,-0.8781,-0.8744,-0.8746,-0.8747,-0.8748,0,0,0,0,0,0,0,-0.8641,-0.8646,-0.8701,-0.8685,-0.8685,-0.868,-0.8684,-0.8712,-0.8717,-0.8697,-0.8695,-0.8699,-0.8725,-0.8734,-0.8737,-0.8781,-0.8744,-0.8747,-0.8748,-0.8749,-0.8858,-0.8859,0,0,0,0,0,0,-0.8639,-0.8644,-0.87,-0.8701,-0.866,-0.8683,-0.8686,-0.87,-0.8717,-0.8718,-0.87,-0.8699,-0.8731,-0.8734,-0.8738,-0.8787,-0.8747,-0.8749,-0.8751,-0.8857,-0.8858,-0.886,0,0,0,0,0,0,-0.8637,-0.8644,-0.8698,-0.8673,-0.8679,-0.8685,-0.8701,-0.8702,-0.8711,-0.872,-0.8721,-0.8709,-0.873,-0.8735,-0.8768,-0.8788,-0.875,-0.8753,-0.8855,-0.8857,-0.8859,-0.8886,0,0,0,0,0,0,-0.8635,-0.8643,-0.8659,-0.8673,-0.8681,-0.8728,-0.8703,-0.8703,-0.8716,-0.8713,-0.8728,-0.873,-0.8729,-0.8764,-0.877,-0.8791,-0.8755,-0.8853,-0.8856,-0.8858,-0.8883,-0.8889,-0.8894,0,0,0,0,0,-0.8632,-0.8666,-0.866,-0.8667,-0.8701,-0.8729,-0.8733,-0.8732,-0.8717,-0.8733,-0.8739,-0.8729,-0.8785,-0.8768,-0.8774,-0.8796,-0.8852,-0.8855,-0.8858,-0.8881,-0.8888,-0.8893,0,0,0,0,0,0,-0.8655,-0.8668,-0.8662,-0.8701,-0.8714,-0.8726,-0.8746,-0.8739,-0.8757,-0.8754,-0.8751,-0.8755,-0.8789,-0.8796,-0.8777,-0.8836,-0.8816,-0.8821,-0.8831,-0.8838,-0.8843,-0.8841,-0.8757,0,0,0,0,0,-0.8665,-0.8686,-0.8696,-0.873,-0.8736,-0.874,-0.8752,-0.875,-0.8764,-0.8769,-0.8777,-0.879,-0.8811,-0.8824,-0.8844,-0.8884,-0.8887,-0.8902,-0.8907,-0.8911,-0.8915,-0.8937,-0.8944,-0.887,-0.887,-0.887,0,0,-0.8685,-0.8694,-0.8708,-0.8734,-0.8744,-0.8767,-0.8745,-0.877,-0.8787,-0.8773,-0.8805,-0.8811,-0.8825,-0.8862,-0.8878,-0.8868,-0.8936,-0.8915,-0.8918,-0.8921,-0.8941,-0.8948,-0.8954,-0.8872,-0.8872,-0.8872,0,0,-0.8733,-0.8742,-0.8771,-0.8781,-0.8796,-0.8798,-0.8805,-0.8818,-0.8821,-0.8853,-0.8843,-0.8862,-0.8897,-0.8908,-0.8918,-0.8968,-0.896,-0.8974,-0.9001,-0.9022,-0.9028,-0.9033,-0.9051,-0.9058,-0.8979,-0.8979,-0.8979,0,-0.8756,-0.879,-0.8787,-0.8812,-0.8824,-0.8812,-0.884,-0.885,-0.8871,-0.8879,-0.8867,-0.8911,-0.892,-0.8959,-0.8971,-0.8979,-0.8987,-0.8974,-0.9027,-0.9032,-0.9037,-0.9054,-0.9061,-0.898,-0.898,-0.898,-0.898,0,-0.8817,-0.884,-0.8862,-0.8882,-0.8895,-0.8922,-0.8923,-0.8937,-0.8933,-0.8936,-0.8968,-0.8978,-0.8999,-0.9008,-0.9005,-0.9046,-0.9039,-0.9027,-0.9007,-0.9046,-0.9062,-0.9069,-0.8983,-0.8982,-0.8982,-0.8981,0,0,-0.8882,-0.8899,-0.8907,-0.8915,-0.893,-0.8948,-0.8974,-0.8994,-0.9006,-0.902,-0.9042,-0.9071,-0.906,-0.9071,-0.9069,-0.9087,-0.9126,-0.9073,-0.9073,-0.9083,-0.9172,-0.9181,-0.9189,-0.912,-0.9121,-0.9122,-0.9171,0,-0.8932,-0.8977,-0.8975,-0.9018,-0.9039,-0.9027,-0.9049,-0.906,-0.9063,-0.9082,-0.9085,-0.9106,-0.9089,-0.9096,-0.9113,-0.9118,-0.9144,-0.9114,-0.914,-0.9141,-0.9138,-0.9198,-0.9208,-0.9253,-0.9177,-0.9178,-0.9179,0,-0.8996,-0.9012,-0.9057,-0.9067,-0.9076,-0.9097,-0.9114,-0.9132,-0.9144,-0.9145,-0.9157,-0.9151,-0.9176,-0.9154,-0.9189,-0.9169,-0.9179,-0.9183,-0.9184,-0.9188,-0.9163,-0.9203,-0.9268,-0.9275,-0.9189,-0.9188,-0.9187,0,-0.9039,-0.9072,-0.9103,-0.911,-0.9124,-0.9138,-0.9144,-0.9155,-0.9167,-0.9182,-0.919,-0.9207,-0.9218,-0.9231,-0.923,-0.9214,-0.9266,-0.9243,-0.9267,-0.9267,-0.928,-0.9279,-0.9348,-0.9285,-0.9285,-0.9285,-0.9284,0,-0.9095,-0.9124,-0.9122,-0.9142,-0.9172,-0.9168,-0.9199,-0.9203,-0.9212,-0.9232,-0.9222,-0.924,-0.9237,-0.9255,-0.9254,-0.9283,-0.9288,-0.9289,-0.9289,-0.9291,-0.9291,-0.9298,-0.9295,-0.9286,-0.9286,-0.9286,-0.9285,0,-0.915,-0.915,-0.9183,-0.9192,-0.9195,-0.9218,-0.9225,-0.9243,-0.9245,-0.9269,-0.9275,-0.9277,-0.9298,-0.9298,-0.9321,-0.932,-0.9356,-0.9352,-0.9352,-0.9352,-0.9376,-0.9374,-0.9452,-0.9463,-0.9392,-0.9393,-0.9394,0,-0.9186,-0.9208,-0.9219,-0.9231,-0.9238,-0.9258,-0.927,-0.9266,-0.9279,-0.9293,-0.9309,-0.9329,-0.9344,-0.9378,-0.9382,-0.9399,-0.9396,-0.9422,-0.9398,-0.9399,-0.9397,-0.9396,-0.9398,-0.9427,-0.9428,-0.9429,-0.9429,0,-0.9251,-0.925,-0.9267,-0.9284,-0.9299,-0.9312,-0.9324,-0.9335,-0.9332,-0.9347,-0.9368,-0.938,-0.9403,-0.9423,-0.944,-0.9446,-0.9437,-0.9436,-0.9443,-0.9445,-0.9445,-0.9446,-0.9366,-0.9435,-0.9434,-0.9434,-0.9433,-0.9433,-0.9298,-0.9316,-0.9326,-0.9346,-0.9354,-0.9366,-0.9383,-0.9386,-0.9403,-0.9422,-0.9419,-0.9442,-0.9452,-0.9474,-0.9481,-0.9499,-0.949,-0.9499,-0.9501,-0.9504,-0.9507,-0.9441,-0.9502,-0.9502,-0.9501,-0.9501,-0.9501,0,-0.9362,-0.9368,-0.9386,-0.9403,-0.9418,-0.9408,-0.942,-0.9434,-0.9455,-0.9465,-0.948,-0.9504,-0.9522,-0.9527,-0.9544,-0.9558,-0.9554,-0.9562,-0.9562,-0.9563,-0.9514,-0.9507,-0.9565,-0.9565,-0.9565,-0.9565,-0.9565,-0.9565,-0.9398,-0.9428,-0.9427,-0.9461,-0.9466,-0.9489,-0.9497,-0.9507,-0.9515,-0.9542,-0.9557,-0.956,-0.9568,-0.9585,-0.9602,-0.9602,-0.961,-0.962,-0.9619,-0.9573,-0.9567,-0.9561,-0.9554,-0.9621,-0.9621,-0.9667,-0.9667,-0.9668]},{"header":{"parameterUnit":"m.s-1","parameterCategory":1,"la1":30.2991,"la2":30.254,"lo1":-89.0895,"lo2":-89.0444,"dy":0.0017,"dx":0.0017,"nx":28,"ny":28,"refTime":"2024-11-28T03:00:00:Z","depth":0,"parameterNumber":3,"parameterNumberName":"V-component_of_WINDS"},"data":[0,0,0,0,0,0,0,0,0,0,0,0,0,0,0,0,0,0,0,0,0,0,0,0,0,0,0,0,0,0,0,0,0,0,0,0,0,0,0,0,0,0,0,0,0,0,0,0,0,0,0,0,0,0,0,0,0,0,-7.3219,-7.322,0,-7.3346,-7.3348,-7.3349,-7.3286,-7.3283,-7.3279,-7.3276,-7.3401,-7.3407,-7.3413,0,0,0,0,0,0,0,0,0,0,0,0,0,-7.2915,-7.2921,-7.3219,-7.322,-7.3222,-7.3346,-7.3348,-7.335,-7.3287,-7.3282,-7.3278,-7.3275,-7.3399,-7.3406,-7.3414,0,0,0,0,0,0,0,0,0,0,0,0,0,-7.3045,-7.2923,-7.3218,-7.3206,-7.3206,-7.3346,-7.3348,-7.335,-7.3287,-7.3282,-7.3277,-7.3273,-7.3396,-7.3405,-7.3415,-7.3573,0,0,-7.3444,-7.3448,0,0,0,0,0,0,0,0,-7.3038,-7.3056,-7.3206,-7.3207,-7.3207,-7.3295,-7.3287,-7.3425,-7.3289,-7.3256,-7.3276,-7.327,-7.3369,-7.3381,-7.3415,-7.3579,-7.3584,-7.3445,-7.3451,-7.3455,-7.3458,0,0,0,0,0,0,0,-7.3029,-7.3051,-7.3269,-7.3208,-7.3209,-7.3192,-7.3205,-7.3312,-7.3339,-7.3259,-7.3254,-7.3271,-7.3368,-7.3406,-7.3418,-7.3586,-7.3445,-7.3453,-7.3459,-7.3463,-7.3888,-7.3893,0,0,0,0,0,0,-7.3021,-7.3044,-7.3265,-7.3273,-7.3109,-7.3201,-7.3216,-7.3272,-7.3337,-7.3343,-7.3275,-7.3267,-7.3392,-7.3407,-7.3422,-7.3613,-7.3455,-7.3464,-7.3469,-7.3882,-7.3889,-7.3895,0,0,0,0,0,0,-7.3015,-7.3042,-7.326,-7.3157,-7.3184,-7.3212,-7.3275,-7.3277,-7.3315,-7.335,-7.3353,-7.3309,-7.3389,-7.3408,-7.3537,-7.3617,-7.3468,-7.3477,-7.3876,-7.3885,-7.3892,-7.3997,0,0,0,0,0,0,-7.3007,-7.304,-7.3101,-7.3159,-7.3189,-7.3375,-7.328,-7.3283,-7.3332,-7.3324,-7.3383,-7.3388,-7.3387,-7.3523,-7.3547,-7.3627,-7.3484,-7.3869,-7.388,-7.389,-7.3986,-7.4007,-7.4026,0,0,0,0,0,-7.2996,-7.3124,-7.3105,-7.3132,-7.3267,-7.3379,-7.3396,-7.3394,-7.3339,-7.34,-7.3423,-7.3386,-7.3604,-7.3537,-7.3563,-7.3647,-7.3864,-7.3877,-7.3889,-7.3977,-7.4003,-7.4025,0,0,0,0,0,0,-7.3072,-7.3131,-7.3111,-7.3261,-7.3316,-7.3368,-7.3446,-7.3422,-7.3491,-7.348,-7.3473,-7.3487,-7.3621,-7.3646,-7.357,-7.3805,-7.3725,-7.3743,-7.3784,-7.3809,-7.3828,-7.3819,-7.3492,0,0,0,0,0,-7.3107,-7.3195,-7.324,-7.3369,-7.3398,-7.3418,-7.3466,-7.346,-7.3516,-7.3538,-7.357,-7.3624,-7.3704,-7.3757,-7.3833,-7.3989,-7.4002,-7.406,-7.408,-7.4096,-7.4112,-7.4198,-7.4225,-7.3936,-7.3936,-7.3936,0,0,-7.3178,-7.3221,-7.3277,-7.3385,-7.3427,-7.3517,-7.3437,-7.3535,-7.3602,-7.3552,-7.3677,-7.3702,-7.3761,-7.3905,-7.397,-7.393,-7.4195,-7.4112,-7.4125,-7.4132,-7.4214,-7.4241,-7.4265,-7.3945,-7.3943,-7.3942,0,0,-7.3355,-7.3397,-7.351,-7.3554,-7.3619,-7.3632,-7.3659,-7.3716,-7.3732,-7.3857,-7.3822,-7.39,-7.4039,-7.4084,-7.4124,-7.4321,-7.429,-7.4346,-7.4449,-7.4533,-7.4556,-7.4576,-7.4648,-7.4673,-7.4361,-7.4362,-7.4362,0,-7.3436,-7.3572,-7.357,-7.3672,-7.3721,-7.3683,-7.3797,-7.3839,-7.3925,-7.3959,-7.3914,-7.409,-7.4127,-7.4281,-7.433,-7.4363,-7.4394,-7.4339,-7.4553,-7.4573,-7.4592,-7.466,-7.4687,-7.4368,-7.4367,-7.4367,-7.4366,0,-7.3669,-7.3764,-7.3846,-7.3934,-7.3992,-7.4099,-7.4112,-7.4171,-7.416,-7.4177,-7.4306,-7.4349,-7.4435,-7.447,-7.4459,-7.4624,-7.4598,-7.4554,-7.4473,-7.4626,-7.469,-7.4716,-7.4378,-7.4375,-7.4373,-7.4372,0,0,-7.3897,-7.3984,-7.4014,-7.4054,-7.4125,-7.4197,-7.4303,-7.4389,-7.444,-7.45,-7.4589,-7.4708,-7.4669,-7.4715,-7.4709,-7.4782,-7.4937,-7.4729,-7.473,-7.4767,-7.5123,-7.5157,-7.5187,-7.4917,-7.4922,-7.4926,-7.5118,0,-7.408,-7.4268,-7.427,-7.4442,-7.453,-7.4496,-7.4588,-7.464,-7.4659,-7.4735,-7.4755,-7.4841,-7.4781,-7.4809,-7.488,-7.4904,-7.5009,-7.4889,-7.4998,-7.5002,-7.4986,-7.522,-7.5256,-7.5436,-7.5143,-7.5147,-7.515,0,-7.4319,-7.4392,-7.4574,-7.4633,-7.467,-7.4753,-7.4833,-7.4907,-7.4965,-7.4974,-7.5028,-7.5011,-7.5117,-7.5034,-7.5181,-7.51,-7.5144,-7.5162,-7.5169,-7.518,-7.5086,-7.5239,-7.5493,-7.5521,-7.5189,-7.5186,-7.5183,0,-7.447,-7.4612,-7.474,-7.4775,-7.4847,-7.4907,-7.4939,-7.4993,-7.5045,-7.5114,-7.5148,-7.5228,-7.5271,-7.5333,-7.5338,-7.5276,-7.5486,-7.5402,-7.5496,-7.5496,-7.5542,-7.554,-7.5809,-7.5569,-7.5569,-7.5568,-7.5568,0,-7.4675,-7.4788,-7.4809,-7.4888,-7.5013,-7.5014,-7.5137,-7.5164,-7.5213,-7.5296,-7.5269,-7.5347,-7.5348,-7.5427,-7.5431,-7.5553,-7.5572,-7.5581,-7.5581,-7.5585,-7.5584,-7.5615,-7.5603,-7.5576,-7.5574,-7.5573,-7.5571,0,-7.4865,-7.4883,-7.5021,-7.5079,-7.5096,-7.5187,-7.5235,-7.531,-7.5327,-7.5432,-7.5456,-7.5482,-7.5574,-7.5585,-7.5691,-7.5694,-7.5841,-7.5827,-7.5823,-7.5821,-7.5915,-7.5906,-7.6214,-7.6255,-7.5987,-7.599,-7.5992,0,-7.4996,-7.5083,-7.5151,-7.5206,-7.5243,-7.5331,-7.5385,-7.5388,-7.5445,-7.552,-7.5586,-7.5676,-7.5748,-7.5896,-7.5923,-7.6005,-7.5993,-7.6095,-7.6005,-7.6006,-7.5996,-7.5992,-7.6001,-7.6113,-7.6116,-7.6118,-7.612,0,-7.5227,-7.5232,-7.5312,-7.5397,-7.5464,-7.5529,-7.5591,-7.5637,-7.5648,-7.5713,-7.5809,-7.5865,-7.5975,-7.6065,-7.6145,-7.6176,-7.6151,-7.6149,-7.6175,-7.618,-7.6175,-7.618,-7.5872,-7.6142,-7.6139,-7.6138,-7.6137,-7.6136,-7.5392,-7.5468,-7.553,-7.562,-7.5668,-7.5727,-7.5801,-7.5829,-7.5909,-7.6001,-7.5997,-7.6102,-7.6159,-7.6265,-7.6303,-7.6384,-7.635,-7.6387,-7.6397,-7.6407,-7.6417,-7.6161,-7.6398,-7.6398,-7.6397,-7.6397,-7.6396,0,-7.5623,-7.5661,-7.5745,-7.5834,-7.5906,-7.5878,-7.5945,-7.6006,-7.61,-7.6157,-7.6229,-7.6339,-7.6426,-7.6461,-7.6547,-7.6605,-7.6596,-7.6627,-7.6624,-7.6632,-7.6442,-7.6412,-7.6634,-7.6634,-7.6634,-7.6634,-7.6634,-7.6634,-7.5752,-7.588,-7.5893,-7.6045,-7.6081,-7.6187,-7.6228,-7.6282,-7.6328,-7.6453,-7.6526,-7.6549,-7.6597,-7.6686,-7.6765,-7.6772,-7.6806,-7.6843,-7.6846,-7.6669,-7.6645,-7.6622,-7.6593,-7.685,-7.685,-7.7029,-7.7031,-7.7032]}]]